Regional Weather Roundup
Issued by NWS

Home | Current Version | Previous Version | Text Only | Print | Product List | Glossary Off
Versions: 1 2 3 4 5 6 7 8 9 10 11 12 13 14 15 16 17 18 19 20 21 22 23 24 25 26 27 28 29 30 31 32 33 34 35 36 37 38 39 40 41 42 43 44 45 46 47 48 49 50

000
ASUS43 KFSD 242210
RWRSD

WEATHER ROUNDUP FOR SOUTH DAKOTA
NATIONAL WEATHER SERVICE SIOUX FALLS SD
500 PM CDT THU JUL 24 2014

NOTE: "FAIR" INDICATES FEW OR NO CLOUDS BELOW 12,000 FEET WITH NO
SIGNIFICANT WEATHER AND/OR OBSTRUCTIONS TO VISIBILITY.


SDZ001>005-009-010-012>017-242300-
NORTHWEST AND NORTH CENTRAL SOUTH DAKOTA

CITY           SKY/WX    TMP DP  RH WIND       PRES   REMARKS
BUFFALO          N/A     90  67  46 SE6       29.68F
FAITH            N/A     92  66  42 S12       29.72F
MOBRIDGE       SUNNY     84  68  58 SE23G31   29.71F
$$

SDZ012>016-024>037-041>051-057-063-072>074-242300-
SOUTHWEST AND SOUTH CENTRAL SOUTH DAKOTA

CITY           SKY/WX    TMP DP  RH WIND       PRES   REMARKS
RAPID CTY ARPT PTSUNNY   89  71  55 W5        29.76F HX  95
PIERRE         SUNNY     98  69  38 SE21G30   29.65F HX 104
CUSTER         CLOUDY    91  39  16 W17G23    29.97F
ELLSWORTH AFB  PTSUNNY   91  66  43 N2        29.76F
PHILIP         SUNNY    104  58  21 CALM      29.67F HX 104
PINE RIDGE     MOSUNNY   93  58  30 S13       29.77F
WINNER         FAIR     100  67  33 S23G30    29.70F HX 105
$$

SDZ004>011-016>023-039-040-242300-
NORTHEAST SOUTH DAKOTA

CITY           SKY/WX    TMP DP  RH WIND       PRES   REMARKS
ABERDEEN       SUNNY     79  61  53 SE24G33   29.80F
WATERTOWN      MOSUNNY   72  61  68 S20G31    29.88F
SISSETON         N/A     72  63  73 S25G36    29.85F
$$

SDZ017-020-022-023-036>040-048>070-242300-
SOUTHEAST SOUTH DAKOTA

CITY           SKY/WX    TMP DP  RH WIND       PRES   REMARKS
SIOUX FALLS    CLOUDY    71  61  70 SE24G38   29.93F
HURON          PTSUNNY   75  63  66 SE22G37   29.83F
CHAMBERLAIN    SUNNY     90  70  51 SE22G31   29.75F HX  95
MITCHELL       MOSUNNY   78  66  66 SE29G38   29.87F
YANKTON        MOSUNNY   82  66  57 SE18G24   29.90R
$$

ABBREVIATIONS USED IN REMARKS
   TC - TEMPERATURE IN CELSIUS
  WCI - WIND CHILL INDEX
   HX - HEAT INDEX
  VSB - VISIBILITY




USA.gov is the U.S. government's official web portal to all federal, state and local government web resources and services.